Location: Caltech
(34.1382°N, 118.1253°W)
Time: 15:30:49
(UTC-07:00)

Iridium 94 - Visible Passes

Search period start: 01 August 2014 00:00
Search period end: 11 August 2014 00:00
Orbit: 776 x 778 km, 86.4° (Epoch: 01 August)

Date Brightness Start Highest point End Pass type
(mag) Time Alt. Az. Time Alt. Az. Time Alt. Az.
01 Aug 8.1 01:27:32 13° ENE 01:27:32 13° ENE 01:28:58 10° NE visible
01 Aug 6.5 03:08:00 37° NW 03:08:00 37° NW 03:11:27 10° N visible
02 Aug 6.7 02:34:45 40° N 02:34:45 40° N 02:38:04 10° N visible
03 Aug 7.3 02:01:30 29° NE 02:01:30 29° NE 02:04:17 10° NNE visible
03 Aug 7.5 03:41:58 15° NW 03:41:58 15° NW 03:43:45 10° NW visible
04 Aug 7.9 01:28:13 17° NE 01:28:13 17° NE 01:30:00 10° NNE visible
04 Aug 7.1 03:08:42 24° NW 03:08:42 24° NW 03:11:15 10° NNW visible
05 Aug 7.0 02:35:25 31° NNW 02:35:25 31° NNW 02:38:07 10° N visible
06 Aug 7.3 02:02:08 28° NNE 02:02:08 28° NNE 02:04:34 10° N visible
07 Aug 7.8 01:28:50 20° NE 01:28:50 20° NE 01:30:37 10° NNE visible
07 Aug 7.6 03:09:19 16° NW 03:09:19 16° NW 03:10:49 10° NNW visible
08 Aug 8.2 00:55:32 12° NE 00:55:32 12° NE 00:56:01 10° NE visible
08 Aug 7.5 02:36:01 22° NNW 02:36:01 22° NNW 02:38:01 10° NNW visible
09 Aug 7.5 02:02:42 24° N 02:02:42 24° N 02:04:42 10° N visible
10 Aug 7.8 01:29:23 20° NNE 01:29:23 20° NNE 01:31:00 10° NNE visible
10 Aug 8.0 03:09:51 10° NW 03:09:51 10° NW 03:10:00 10° NW visible
